GFSFLT1_850_thetae_078.txt.gz
Theta_e
330 328 319 326 337 335 332 326 313 316 317 319 322 331 330 332 332 333 334 333 334 333 332 333 332 331 332 332 333 332 331 331 333
335 330 321 330 336 334 332 328 314 320 321 320 323 331 331 330 330 330 332 333 332 327 324 326 330 329 328 330 331 331 330 330 330
330 327 322 332 335 333 332 327 316 320 321 322 323 328 330 330 329 327 328 330 327 321 320 319 320 321 323 324 322 320 320 320 320
333 328 321 326 333 331 331 324 318 319 321 323 324 328 330 329 329 329 326 326 323 316 314 313 312 312 312 312 312 312 312 311 311
329 329 329 329 330 329 325 322 317 317 321 323 324 325 329 325 328 328 326 321 317 312 310 308 308 308 307 307 307 306 306 305 305
317 323 327 325 324 323 322 320 314 317 320 323 324 327 328 328 327 326 319 316 316 312 308 306 306 306 305 305 305 305 304 304 304
313 316 317 321 319 319 318 316 316 318 320 322 324 326 327 326 323 322 318 314 314 310 307 306 305 305 305 304 304 303 303 302 302
319 317 314 316 316 317 316 315 317 320 323 324 324 326 326 324 323 321 316 313 313 310 307 305 305 304 304 304 303 302 302 302 301
321 316 314 315 315 315 315 315 318 322 327 326 326 325 324 322 322 321 318 313 312 309 307 305 304 304 303 302 302 302 302 301 301
318 319 318 315 317 316 319 320 322 326 326 325 325 324 323 322 320 319 317 315 311 309 307 305 304 303 303 302 302 302 302 302 302
322 324 325 324 325 325 327 328 329 329 326 323 324 323 322 322 322 320 319 315 312 309 307 305 304 304 304 304 303 302 303 302 302
323 324 324 326 327 327 328 328 329 329 328 326 322 322 322 323 322 321 319 314 314 310 308 306 304 304 305 305 304 304 304 304 304
326 322 322 324 324 326 327 328 329 328 326 325 322 320 321 322 322 320 318 314 313 311 309 307 306 305 305 305 304 303 303 303 304
325 322 320 321 322 324 325 327 328 327 325 323 321 320 321 323 322 321 316 313 313 312 311 309 306 305 304 303 303 302 302 302 302
330 327 322 321 322 322 324 325 326 326 324 321 320 320 321 323 323 322 321 313 312 312 311 310 307 306 304 302 302 301 301 301 301
332 332 331 326 324 323 322 323 325 326 324 322 319 317 319 322 323 323 322 318 312 310 311 310 307 305 304 302 302 301 301 301 301
332 332 332 331 328 327 325 324 324 325 325 322 321 317 316 320 322 323 322 320 317 311 310 309 308 306 305 304 303 303 301 301 300
334 333 332 332 331 330 329 327 326 325 324 323 322 319 320 321 320 321 321 318 316 315 310 308 306 305 306 305 303 303 302 301 300
332 332 333 333 332 331 331 329 328 327 326 324 322 321 322 321 318 317 315 314 312 313 312 309 306 304 303 304 304 302 301 300 299
331 332 333 333 332 331 331 330 329 328 328 326 324 323 322 321 318 318 317 313 312 311 312 309 307 304 303 302 302 302 301 300 298

GFSFLT1_850_thetae_081.txt.gz
Theta_e
326 319 325 338 335 332 326 313 315 315 319 326 330 330 330 330 332 332 334 335 333 333 332 332 331 333 332 332 331 331 330 331 331
325 318 325 337 335 333 328 314 319 318 320 329 330 330 329 329 329 331 332 333 331 325 322 326 327 327 326 328 329 328 325 325 326
329 320 327 335 334 330 327 317 319 320 321 327 330 329 329 328 326 327 329 330 323 316 315 316 317 318 319 317 315 314 315 314 313
324 320 324 333 332 326 324 318 316 320 322 324 328 329 328 327 328 328 322 321 315 313 311 311 310 310 311 311 310 310 310 310 310
321 319 321 329 329 325 322 318 315 319 322 323 326 327 328 327 326 326 322 318 314 312 309 308 307 306 306 306 306 305 305 305 305
315 319 320 323 324 323 320 318 314 318 321 323 325 327 327 326 326 324 320 315 314 312 308 306 306 306 305 305 305 305 305 304 304
314 315 319 320 320 319 318 317 315 318 320 322 324 326 327 327 324 321 320 314 313 311 308 306 305 305 305 305 304 304 303 303 302
314 314 315 317 318 318 317 315 316 318 320 322 323 325 325 325 323 322 319 314 313 311 309 306 305 305 304 304 303 303 303 302 302
319 317 317 315 316 316 316 315 317 319 322 324 324 325 325 325 323 322 320 316 313 311 310 307 305 305 304 303 303 303 302 302 302
325 318 316 315 315 315 315 315 317 320 323 324 325 325 324 324 322 322 321 317 314 312 311 307 305 305 304 304 304 304 303 303 303
329 319 319 318 316 318 317 318 321 323 324 325 325 324 323 323 322 322 321 319 315 312 311 308 306 305 305 305 305 304 304 304 303
328 321 321 321 322 323 324 325 327 329 329 325 323 324 323 322 323 323 322 321 315 314 312 310 307 307 308 308 306 304 304 304 304
326 324 322 322 323 325 325 327 328 329 329 327 326 323 322 321 322 322 322 322 317 314 313 311 308 307 308 308 307 305 305 305 305
326 324 322 321 321 322 323 326 327 328 328 326 327 325 322 320 319 322 322 322 320 313 312 312 309 307 308 308 307 307 305 304 303
329 328 326 322 320 320 321 322 325 326 327 327 324 323 321 319 319 320 322 322 321 317 312 312 310 308 307 306 306 306 306 304 304
332 332 330 328 324 323 322 322 323 324 327 327 325 322 320 319 319 320 320 321 322 321 316 311 310 309 307 306 305 304 303 302 301
333 332 331 331 329 327 324 324 324 323 325 326 323 321 319 319 319 319 321 321 320 321 320 315 311 309 308 306 305 304 302 302 301
333 331 332 331 331 330 329 327 326 325 325 325 324 320 319 320 320 320 320 321 320 319 318 315 312 310 308 307 306 305 302 301 301
333 333 333 333 333 332 331 329 328 327 327 326 325 324 321 321 321 321 321 319 318 317 314 312 310 309 308 306 303 301 301 300 300
331 333 333 333 333 332 332 330 329 328 328 328 327 325 324 322 321 319 320 319 315 312 310 311 309 308 307 304 302 300 299 298 298

GFSFLT1_850_thetae_084.txt.gz
Theta_e
316 324 338 336 332 321 313 313 315 320 325 327 328 330 329 332 332 333 333 335 331 332 333 332 332 333 332 331 330 330 330 331 332
317 326 337 335 333 325 314 317 317 322 326 326 330 329 329 330 331 333 333 331 329 323 322 323 324 324 325 326 327 325 322 321 323
316 325 335 334 331 326 315 318 318 321 325 327 327 327 327 326 328 330 330 326 317 315 314 314 315 317 317 315 314 313 313 313 312
318 323 332 331 327 323 315 318 320 321 324 326 327 327 325 326 324 323 320 317 314 312 310 309 309 309 309 309 309 309 308 308 308
318 319 329 327 325 321 317 315 319 321 323 325 326 325 324 324 323 321 317 316 314 312 309 308 307 306 306 306 306 305 305 305 305
317 317 322 326 324 321 318 315 318 320 322 323 325 325 323 323 323 321 318 314 313 312 309 307 306 306 306 305 305 305 304 304 304
317 318 320 323 322 320 318 316 316 319 322 323 324 325 325 325 324 321 319 315 313 312 310 308 306 306 305 305 304 304 303 303 303
316 318 321 322 321 319 318 317 315 318 320 322 324 325 325 324 323 322 321 318 313 312 310 308 306 306 305 305 304 303 303 303 302
314 315 316 319 319 319 318 315 315 318 320 322 323 325 324 324 324 322 322 320 315 313 311 308 307 305 305 304 304 304 304 303 303
321 319 317 317 316 316 317 316 315 318 321 323 323 324 324 324 323 322 322 321 317 314 312 309 307 305 305 305 305 304 304 304 304
327 325 318 317 315 315 315 316 315 318 321 323 324 324 324 323 323 322 322 321 320 316 313 311 308 306 306 306 306 305 304 305 305
326 327 320 319 319 318 317 318 319 320 324 326 325 324 324 323 323 322 322 322 321 317 314 312 310 307 307 308 307 305 305 305 305
328 326 323 320 320 320 321 321 323 325 327 327 327 324 323 323 322 321 321 322 321 321 315 313 311 308 308 309 308 307 305 305 305
328 326 324 322 321 320 321 323 324 325 327 328 328 327 326 324 323 320 320 321 321 321 319 314 313 310 307 307 307 307 306 304 303
329 328 327 325 323 322 322 322 324 325 327 328 328 327 326 325 323 321 319 320 321 321 320 317 313 312 310 306 306 307 305 302 301
331 331 330 328 327 325 322 322 323 324 326 327 328 327 326 324 323 320 319 319 320 321 320 319 318 312 310 308 304 305 305 301 300
332 332 331 331 330 329 326 323 323 323 324 326 327 327 325 324 322 320 319 319 318 319 319 318 318 315 311 309 307 304 303 301 300
333 332 333 332 332 331 330 328 325 325 325 324 326 324 323 322 322 321 320 319 318 318 317 317 316 314 312 309 307 305 301 299 302
334 333 332 331 333 333 332 331 329 326 326 325 325 325 325 322 322 322 321 320 318 316 316 316 315 313 311 308 307 305 304 305 300
335 332 332 332 333 333 333 332 330 329 328 327 326 326 325 325 323 322 323 322 320 319 316 316 314 311 310 309 309 305 302 310 303

GFSFLT1_850_thetae_087.txt.gz
Theta_e
329 337 335 330 315 312 311 313 315 318 321 327 326 330 331 331 333 333 334 332 330 331 332 331 332 332 332 330 330 330 332 331 333
320 337 335 332 318 313 314 315 318 322 323 326 328 329 331 331 332 333 332 330 327 322 323 323 322 321 322 322 323 321 318 319 322
319 335 334 331 323 315 316 317 319 322 325 326 325 326 327 328 329 330 329 319 314 313 313 312 313 314 314 313 312 312 312 312 312
319 331 330 328 323 315 317 318 320 323 323 324 324 325 323 322 322 319 318 315 313 312 310 309 308 308 308 307 307 307 307 306 306
318 328 328 327 321 316 316 319 320 322 324 325 325 324 322 322 321 319 315 315 313 312 310 308 307 306 306 306 306 305 305 305 305
317 323 328 327 323 319 316 318 320 322 325 325 325 324 322 323 322 320 318 315 313 312 310 308 307 306 306 305 305 305 305 304 304
318 319 327 328 324 321 318 315 319 321 323 324 324 324 324 324 323 322 320 317 314 313 310 309 307 306 305 305 304 303 303 303 303
320 320 322 327 324 321 318 317 316 320 322 323 324 324 324 324 323 322 322 320 316 313 311 310 307 306 305 304 304 303 303 303 302
315 317 320 320 321 319 318 317 315 317 320 322 323 324 324 323 324 323 322 321 320 314 313 311 308 306 305 304 304 305 304 303 303
314 315 315 316 319 318 318 317 315 316 318 320 322 323 324 324 323 323 322 322 321 319 314 312 310 307 305 304 305 305 305 304 304
322 321 319 317 317 317 317 317 316 315 317 321 323 323 324 324 323 322 322 322 322 320 318 314 311 308 306 305 305 305 304 304 304
326 327 325 318 318 315 315 315 316 315 317 319 322 323 323 323 323 323 322 322 322 321 321 316 313 311 307 306 307 306 304 304 304
329 327 325 321 320 320 319 318 318 318 319 322 325 326 325 323 323 323 322 321 321 321 321 320 315 313 310 307 307 307 306 303 302
330 328 326 325 321 320 320 321 322 323 324 326 326 327 327 327 325 324 323 322 320 319 320 320 319 314 312 309 310 309 307 303 301
328 328 327 328 325 323 322 322 323 323 324 325 326 327 327 327 326 325 324 323 321 318 318 320 320 318 314 311 310 314 311 307 302
329 329 329 329 328 327 325 323 323 323 325 326 326 326 327 327 326 325 324 323 321 319 318 318 319 318 317 313 310 309 313 312 308
331 331 331 331 330 330 329 327 325 324 324 325 325 326 325 324 324 324 323 323 321 319 318 317 317 317 316 315 312 308 309 311 308
332 332 332 332 332 331 331 330 329 327 324 324 325 325 325 324 323 322 322 322 321 319 318 317 316 316 315 314 312 310 308 307 305
333 334 333 332 333 333 333 333 332 330 328 325 325 325 325 324 324 324 324 323 323 322 322 320 319 315 313 312 312 311 312 308 312
334 333 333 333 333 333 333 333 333 332 330 329 327 326 325 325 325 324 325 324 324 323 322 322 320 320 317 311 310 309 307 309 310

GFSFLT1_850_thetae_090.txt.gz
Theta_e
337 334 327 312 311 311 312 313 317 318 321 326 328 330 331 333 333 332 331 330 329 329 330 331 331 331 329 329 328 329 331 332 333
336 335 329 314 312 312 314 316 319 320 325 326 328 330 331 332 332 331 330 324 319 317 318 316 315 317 318 317 316 314 314 316 318
335 334 331 320 314 315 316 319 321 322 324 325 327 328 328 329 330 329 320 315 313 311 310 309 309 310 310 310 310 309 309 310 311
332 331 329 326 315 317 317 319 321 323 324 324 324 323 321 322 320 318 316 314 313 311 310 308 307 307 307 306 306 306 306 305 305
329 329 328 324 316 316 318 319 322 323 325 325 324 322 322 321 320 318 315 314 313 312 310 309 307 307 306 306 305 305 305 305 305
323 328 326 323 319 315 318 319 321 323 324 324 324 323 323 323 322 321 319 316 314 312 311 309 308 307 306 305 305 304 304 303 303
319 327 326 323 320 317 315 319 320 322 323 323 323 323 324 324 323 322 321 320 316 313 312 310 308 307 306 305 304 304 303 303 303
319 322 329 325 322 320 318 315 319 320 321 322 323 323 324 324 323 322 322 321 320 315 313 311 308 307 305 305 304 303 303 303 303
317 318 320 324 324 321 319 318 315 318 320 321 322 323 323 323 323 323 323 322 321 320 316 313 310 308 305 304 304 304 304 303 304
316 317 318 319 320 319 319 318 316 315 318 320 321 322 323 323 323 323 322 322 321 321 320 317 313 310 306 305 305 305 304 303 303
315 315 316 316 317 318 318 318 317 315 316 318 320 321 322 323 323 323 322 322 321 321 321 320 316 313 310 306 305 305 305 303 303
320 322 322 321 318 318 317 317 316 316 315 316 320 321 322 323 323 323 322 322 321 321 320 321 320 316 313 310 307 306 306 304 303
326 325 326 326 319 320 318 316 317 316 316 316 318 320 324 325 325 324 323 322 322 321 319 320 320 320 316 313 312 309 308 307 305
331 328 327 327 324 320 321 321 321 320 321 322 323 324 325 325 325 325 325 325 324 323 320 318 319 320 319 315 316 318 313 310 307
331 329 328 328 326 324 322 322 322 322 323 323 323 323 324 324 324 325 325 325 324 323 321 319 317 318 319 317 315 315 317 313 311
329 329 328 328 328 328 327 325 324 323 324 324 324 324 324 324 324 325 325 325 325 324 322 319 317 316 317 317 316 313 314 314 312
330 329 329 329 330 330 329 329 328 326 325 324 324 324 325 325 325 325 324 323 322 322 321 319 318 317 316 316 315 314 312 313 313
333 331 331 330 331 330 330 331 330 330 328 326 325 325 325 325 325 325 325 325 324 323 323 323 322 321 318 316 315 315 313 311 311
332 333 333 332 332 332 332 332 332 331 331 329 327 325 324 325 325 325 325 324 324 323 323 322 322 321 319 315 314 313 312 311 311
332 331 331 331 332 331 333 332 332 332 331 330 329 328 327 325 325 324 325 326 325 325 324 323 321 321 319 318 314 312 312 311 310

GFSFLT1_850_thetae_093.txt.gz
Theta_e
331 320 311 310 310 311 313 315 317 320 326 328 329 332 330 330 329 329 330 330 329 328 327 323 322 323 326 325 327 327 326 329 331
333 325 312 311 312 313 316 318 322 323 327 328 329 331 332 331 330 328 319 315 314 312 312 311 311 312 312 312 312 312 313 313 313
333 328 314 314 314 316 318 321 322 325 327 328 328 328 329 329 328 321 315 313 312 310 309 308 308 307 307 307 307 306 307 307 307
333 330 320 315 316 317 319 321 323 324 323 323 323 322 322 321 318 316 315 314 312 310 309 308 307 307 306 306 306 306 306 305 305
331 329 323 315 317 317 319 321 322 323 323 323 322 323 322 321 320 318 316 314 313 311 309 308 307 306 306 306 305 305 304 304 304
330 327 322 318 315 318 318 320 321 322 324 324 323 322 322 322 322 321 320 317 314 312 310 308 307 306 306 305 304 304 304 303 303
329 328 326 321 317 316 318 319 320 322 323 323 323 323 323 323 323 322 321 321 319 314 312 310 308 306 305 305 304 304 304 303 303
324 329 330 325 321 317 316 317 319 320 321 322 323 323 323 324 323 323 322 322 321 320 316 313 310 307 305 305 304 305 304 304 304
318 323 326 325 322 320 318 317 316 318 320 321 321 322 323 323 323 323 323 322 321 321 320 318 314 311 307 305 305 305 305 304 304
319 319 320 323 322 320 319 318 317 315 316 319 320 321 322 323 323 323 322 322 321 321 321 321 319 314 311 307 306 306 306 305 304
317 318 319 319 319 320 319 318 318 316 315 316 318 319 321 322 322 323 323 322 322 321 320 320 321 320 315 313 308 306 307 307 305
316 316 316 317 317 317 317 318 317 318 316 315 316 319 321 321 322 323 322 322 322 321 320 319 320 320 320 316 313 311 308 307 306
319 320 323 324 322 318 318 316 316 316 316 316 315 318 319 322 324 324 324 323 323 323 322 320 318 319 320 319 318 317 313 312 309
331 325 326 327 326 319 320 320 318 319 318 319 320 321 322 323 323 324 324 324 324 324 323 321 319 318 318 319 318 318 318 318 314
333 330 329 328 327 324 321 321 321 322 322 322 322 322 323 323 323 323 324 324 325 325 324 323 320 318 317 317 318 318 317 316 315
332 331 331 329 327 326 326 325 324 323 323 323 323 324 324 324 324 325 325 325 325 324 324 323 321 319 318 317 317 316 316 317 316
331 330 329 329 329 328 328 328 328 327 326 325 325 325 326 326 326 326 326 324 325 325 323 322 322 321 320 317 316 316 315 316 317
332 331 330 329 329 330 330 330 330 330 330 329 326 325 326 326 326 326 325 325 324 324 323 323 322 322 321 318 316 315 315 314 315
333 333 332 331 331 330 331 331 330 330 331 330 330 329 327 326 325 325 325 324 324 324 325 324 324 323 321 320 320 318 315 314 313
331 331 331 331 331 330 329 329 330 331 331 331 331 330 329 327 326 324 325 325 323 325 325 325 323 322 321 320 320 319 317 313 313

GFSFLT1_850_thetae_096.txt.gz
Theta_e
311 310 310 310 311 312 314 315 325 331 328 328 328 330 329 333 332 331 331 331 326 324 319 317 317 321 322 323 325 324 320 320 322
314 311 311 312 313 316 318 324 324 327 329 332 331 331 330 332 331 328 328 314 311 311 310 309 309 309 309 310 310 310 310 310 310
321 313 312 314 316 319 321 323 324 327 328 329 330 329 327 330 327 326 316 312 310 309 308 308 307 307 307 306 306 306 306 306 306
328 314 314 315 317 319 321 323 324 325 326 324 323 321 320 324 322 326 324 313 311 310 308 308 307 307 306 306 306 306 305 305 305
331 321 315 316 318 320 321 322 322 322 323 322 321 321 322 325 323 324 315 314 312 311 309 308 307 306 306 305 305 305 305 305 305
332 327 317 317 318 319 321 322 323 323 323 322 322 323 327 327 326 326 320 317 314 312 311 309 308 307 305 305 305 305 305 305 305
335 328 323 316 318 318 319 321 322 324 324 323 323 327 326 327 325 323 321 321 319 316 313 312 310 307 306 305 305 305 305 305 305
331 331 326 322 316 317 319 320 321 323 324 322 323 324 325 327 324 323 322 322 321 321 319 315 313 310 307 306 306 306 306 306 306
333 329 331 329 321 324 318 321 319 320 320 321 322 322 323 324 324 324 322 322 321 321 321 321 318 313 310 306 306 307 307 306 306
325 332 329 329 328 328 324 321 318 316 318 319 320 320 321 322 323 324 322 322 321 321 320 321 321 319 314 312 307 306 307 307 306
320 321 325 328 327 328 325 324 322 318 316 315 317 319 319 321 322 322 324 322 322 321 320 320 320 320 321 318 313 311 307 307 307
318 319 319 321 323 324 322 320 319 319 317 316 315 317 320 321 321 323 323 323 322 322 322 320 319 319 320 320 320 317 313 311 309
317 317 317 318 318 319 319 318 318 318 317 317 316 316 317 320 322 324 325 324 323 323 323 322 320 318 318 319 319 319 319 319 317
325 317 319 322 324 323 319 319 317 318 317 316 317 318 319 321 323 323 324 324 325 325 324 323 322 320 318 318 320 321 319 319 318
331 329 323 326 327 326 321 320 320 320 321 320 321 322 322 323 323 323 324 324 325 325 325 325 324 322 320 317 317 319 319 319 318
332 333 331 329 328 327 326 323 322 322 322 323 323 323 324 324 324 325 325 325 325 324 324 324 323 322 320 318 317 317 318 319 318
333 333 333 332 330 329 328 327 327 326 325 325 326 327 328 327 326 326 326 326 325 325 324 324 322 323 322 322 319 317 316 317 320
334 333 332 331 330 329 329 329 329 329 329 328 328 328 329 328 327 326 326 325 325 324 324 323 323 322 321 321 319 318 316 316 316
333 333 332 331 330 329 329 329 330 330 330 330 330 329 329 328 327 327 327 326 325 325 324 324 325 324 323 322 321 321 320 317 316
329 330 330 330 332 331 330 330 331 330 330 330 330 330 330 330 327 326 327 326 325 325 323 323 324 324 323 322 321 320 319 318 315

GFSFLT1_850_thetae_099.txt.gz
Theta_e
310 310 312 312 311 312 315 321 327 323 321 327 329 330 332 332 332 331 326 317 316 314 311 313 315 316 316 317 317 314 314 312 312
310 310 311 312 314 317 327 330 328 330 330 329 329 328 332 330 329 327 313 311 310 309 308 308 308 308 308 308 308 307 307 307 306
311 312 313 316 318 324 324 325 327 330 330 330 328 326 329 328 328 315 312 311 310 309 308 308 308 307 307 307 306 306 306 306 306
313 313 315 318 320 322 323 325 326 326 326 325 321 320 325 327 328 327 313 312 311 310 309 309 308 308 307 306 306 306 305 306 305
315 314 316 319 320 322 323 323 323 322 320 320 320 325 329 328 328 318 314 313 312 312 311 310 309 307 306 306 306 306 305 306 306
324 317 316 318 320 321 322 322 322 322 321 321 322 329 330 329 329 321 319 316 314 313 313 311 310 308 307 307 307 306 306 306 307
334 320 316 317 319 321 322 323 323 323 323 322 325 331 330 330 329 322 321 321 320 318 315 314 312 310 308 307 307 307 307 307 307
335 324 318 317 318 319 321 322 323 331 331 328 330 330 330 330 328 322 322 322 322 321 321 318 314 313 310 307 307 308 308 307 307
336 330 330 323 318 329 328 325 329 327 330 330 329 329 329 330 329 325 322 321 321 321 321 321 321 315 313 309 307 307 308 308 307
337 335 334 333 332 331 329 328 328 326 327 328 328 327 327 327 327 328 322 322 321 321 320 320 321 321 319 315 312 308 307 307 308
334 336 333 334 333 333 332 330 329 325 325 326 326 325 324 323 324 326 323 322 321 321 321 320 319 319 320 321 319 315 312 309 308
333 333 334 334 334 333 332 331 329 328 325 323 323 324 326 326 323 322 326 324 322 322 322 322 321 319 319 319 319 320 320 317 315
331 332 332 332 332 332 331 330 328 328 328 326 324 322 322 323 326 326 324 325 326 323 323 323 322 321 320 319 319 319 319 319 319
329 330 330 330 330 329 329 329 328 328 327 326 323 320 318 319 322 325 325 325 324 325 325 324 324 323 321 319 322 321 320 320 319
329 330 329 329 329 329 325 323 323 324 327 325 319 320 322 322 323 323 325 325 324 324 325 325 325 324 323 321 319 319 321 320 320
331 332 330 329 329 329 328 325 325 321 322 324 323 323 323 324 324 324 325 326 325 325 324 325 324 324 322 321 320 318 318 320 320
334 333 333 331 329 328 328 327 325 323 323 323 327 328 329 328 327 327 326 326 326 325 325 324 323 323 323 322 321 319 318 317 319
333 333 334 334 333 331 330 329 327 327 327 327 327 329 329 330 329 327 327 326 325 325 324 324 323 323 322 322 322 320 318 317 317
333 334 334 333 332 331 331 331 330 329 329 329 329 329 329 329 330 328 327 326 326 325 325 325 324 323 324 323 322 321 320 320 319
330 332 331 332 332 332 331 330 330 330 330 330 329 329 330 329 329 328 328 327 327 326 325 325 324 323 323 323 323 322 321 319 318

GFSFLT1_850_thetae_105.txt.gz
Theta_e
332 321 320 313 310 312 315 315 327 333 333 331 331 331 331 331 324 312 311 311 310 310 309 309 309 309 308 308 307 307 307 307 307
318 314 312 314 316 316 316 321 330 329 330 331 330 329 323 315 312 312 311 311 310 310 310 309 309 308 308 307 307 307 307 307 307
313 312 322 332 333 324 321 327 327 326 329 329 326 322 316 313 313 312 312 312 312 311 311 310 308 308 307 308 307 307 308 308 309
312 317 332 331 327 330 329 327 326 325 324 324 324 322 320 315 314 314 314 314 314 312 311 310 309 308 309 308 308 309 309 309 309
315 319 325 323 325 332 327 326 326 322 319 322 325 324 323 319 316 315 315 315 315 314 313 312 310 309 310 309 309 309 309 309 309
317 319 320 321 323 324 323 323 320 319 322 326 328 326 325 322 321 320 319 318 316 315 314 313 311 310 310 310 310 310 310 309 309
317 319 320 320 322 322 321 320 320 321 323 327 329 328 326 323 322 321 321 321 321 320 317 315 313 312 310 310 310 310 310 309 308
316 318 319 320 321 320 321 321 321 322 323 327 330 330 329 326 323 321 321 320 320 320 321 320 318 315 313 311 309 309 310 310 309
317 317 319 320 321 321 322 323 324 325 326 328 329 330 328 326 324 323 321 320 320 319 319 319 320 320 318 315 312 310 309 309 308
317 316 317 318 319 320 321 321 323 325 326 328 328 326 326 324 323 321 322 321 320 320 320 319 319 319 319 320 319 317 313 311 310
328 320 319 318 320 321 321 322 322 322 324 328 328 325 323 323 321 321 320 321 322 321 320 320 320 320 319 318 318 319 319 318 317
335 332 330 331 330 329 330 326 326 323 322 324 323 322 320 322 321 320 320 321 322 322 322 322 322 322 322 322 320 318 318 319 319
334 334 334 334 333 332 332 330 328 326 324 322 321 321 321 321 323 321 322 323 323 323 323 323 323 324 324 323 322 321 320 320 320
333 334 335 335 333 333 332 331 329 327 325 324 323 322 321 320 321 321 321 323 323 324 324 324 324 325 324 323 323 323 322 321 321
331 331 332 332 332 333 333 331 328 325 325 326 325 323 321 319 319 320 322 323 324 325 325 325 325 324 324 323 323 323 323 323 322
329 325 326 328 327 328 328 327 326 325 325 325 322 322 320 320 322 323 323 324 325 325 326 325 325 324 324 323 323 322 322 323 324
330 328 326 326 327 326 325 325 327 325 324 323 323 323 324 324 324 326 326 325 326 326 326 325 325 324 324 323 323 322 322 321 321
333 333 329 330 330 329 327 326 327 327 325 323 323 326 326 327 327 328 329 327 327 327 326 326 325 324 324 323 322 322 321 321 321
335 333 333 333 333 332 331 330 329 329 329 327 326 326 326 327 328 328 329 327 327 326 326 325 325 324 323 323 322 322 322 322 322
336 336 334 332 333 333 331 330 331 331 330 330 329 329 329 328 328 327 327 328 327 326 326 325 325 324 324 323 322 322 322 320 322

GFSFLT1_850_thetae_108.txt.gz
Theta_e
336 336 334 314 312 320 323 322 331 332 330 327 329 330 330 325 312 311 311 310 310 310 310 309 309 308 308 308 308 308 308 308 309
318 331 313 311 315 317 324 332 332 332 329 326 325 321 315 312 312 311 311 311 311 311 310 309 309 308 308 308 308 308 309 310 310
316 312 311 313 316 319 329 330 328 327 326 323 319 315 313 312 313 313 313 313 312 311 310 309 309 309 309 309 310 310 310 310 310
313 327 328 321 317 325 326 325 325 326 323 319 321 317 314 314 314 314 314 314 314 312 311 309 310 310 310 310 310 310 310 310 310
328 331 332 327 324 326 324 323 323 322 321 320 321 321 318 316 315 315 315 315 315 314 313 311 310 310 310 310 311 310 310 310 310
328 329 325 331 328 325 324 324 320 320 322 322 323 323 321 320 320 320 320 318 316 315 314 312 310 310 310 310 311 311 310 310 310
321 322 323 325 325 324 323 320 319 323 324 324 324 324 323 322 321 321 320 320 320 320 318 315 313 311 310 310 311 311 310 310 310
319 320 322 322 322 321 320 319 320 323 325 325 325 325 325 324 321 320 320 319 319 319 319 320 319 316 314 312 310 310 310 310 310
319 320 320 321 320 320 320 321 321 323 325 327 326 325 324 323 322 321 320 319 319 319 319 318 319 319 319 318 315 312 310 309 309
318 319 320 320 320 321 321 322 323 324 324 326 326 325 324 323 322 321 320 320 320 320 319 319 319 319 318 318 319 318 315 313 312
317 317 319 320 320 321 321 322 323 325 325 326 327 326 325 323 322 320 320 320 321 321 321 321 321 321 320 320 319 318 319 319 318
325 317 317 317 318 319 321 324 325 324 326 327 326 326 323 321 321 321 320 321 322 322 322 322 322 323 323 323 322 319 318 318 318
331 323 322 323 325 327 328 326 324 324 323 322 323 322 321 320 321 321 321 323 323 323 323 324 324 324 324 323 323 322 321 321 320
332 330 330 332 332 332 331 330 330 328 326 324 323 321 320 320 320 320 320 322 324 324 325 324 324 324 324 324 324 324 323 322 321
331 332 333 333 333 333 332 331 331 330 328 326 324 324 322 321 320 319 319 321 323 324 325 325 325 325 324 324 323 324 324 324 324
331 333 332 333 333 331 331 332 331 329 326 325 326 325 322 320 319 320 320 322 323 324 325 326 325 325 324 324 323 322 322 323 323
329 330 330 330 330 329 329 330 328 327 325 326 325 324 322 321 322 323 324 324 324 325 325 326 326 325 324 324 323 322 322 320 321
333 331 328 327 328 327 326 325 325 325 326 325 324 323 323 326 326 326 327 328 327 326 326 326 326 326 325 324 323 322 322 321 321
334 332 330 330 329 329 329 329 328 328 328 327 325 323 326 328 328 328 328 328 328 327 327 327 326 326 325 324 323 322 321 320 321
333 333 330 332 331 332 331 330 330 329 330 328 328 327 326 327 327 327 326 327 327 327 327 326 325 325 324 322 323 323 323 322 321

GFSFLT1_850_thetae_111.txt.gz
Theta_e
338 338 332 314 316 326 325 328 327 330 333 332 331 328 319 312 311 311 311 310 310 310 310 309 309 309 309 309 309 310 311 311 311
337 338 321 310 319 324 327 331 330 327 327 325 319 314 312 311 312 312 313 312 312 311 310 309 310 309 310 310 311 311 311 311 311
335 330 311 315 321 323 330 331 327 323 321 318 314 313 312 312 314 314 314 313 312 311 310 311 310 311 311 311 311 311 312 311 311
329 311 312 316 319 330 329 325 323 321 318 316 314 314 314 314 315 315 315 314 313 312 311 311 311 311 311 311 311 311 311 311 312
311 312 315 317 328 326 323 321 321 320 320 318 317 317 316 316 316 316 315 315 314 313 312 311 311 311 311 311 311 311 311 311 311
330 328 317 320 324 322 321 321 320 320 321 321 321 320 320 320 320 320 319 318 317 316 314 312 311 311 311 311 311 311 311 311 311
332 330 323 322 325 323 322 321 319 321 323 323 323 322 321 320 320 320 319 319 319 319 318 316 313 312 311 311 311 311 311 310 310
326 326 329 326 325 324 323 318 321 324 325 324 324 323 322 321 320 319 319 319 318 318 318 319 318 317 315 312 311 310 310 310 309
320 322 324 323 323 323 320 319 322 325 326 326 326 326 324 323 321 320 320 319 319 319 319 318 318 318 318 318 316 314 311 310 310
320 320 322 322 321 320 319 320 321 324 326 326 326 325 323 322 321 320 320 320 320 320 320 320 319 319 319 318 318 318 316 315 314
319 320 321 321 321 320 320 321 321 324 325 326 325 325 324 322 321 320 320 320 321 321 321 321 321 321 322 321 320 318 318 318 318
319 320 320 320 321 321 322 323 324 326 326 326 325 325 325 323 321 320 320 321 321 322 322 322 323 323 323 323 322 320 319 318 318
317 317 319 320 320 320 321 321 322 323 323 323 325 325 323 322 320 321 322 321 322 322 323 323 324 324 324 323 323 322 322 321 320
329 321 317 317 318 320 323 323 324 324 324 323 322 323 322 322 321 321 322 322 323 323 324 324 324 324 324 324 324 324 324 323 322
330 328 326 327 327 328 329 329 329 328 328 327 326 324 323 321 320 320 320 321 322 323 324 325 325 325 324 324 324 324 324 324 324
329 330 331 330 329 329 331 331 330 330 330 329 326 324 324 323 322 322 321 320 320 323 324 325 326 325 324 324 324 323 321 323 323
331 330 331 331 330 331 332 331 331 331 331 329 326 325 322 320 319 320 319 321 322 323 324 325 326 326 325 325 324 323 321 321 320
332 330 330 331 332 331 330 328 329 330 329 325 325 324 322 323 323 322 322 324 325 326 326 326 326 326 326 325 324 322 322 320 320
332 332 332 330 328 327 329 328 327 328 327 327 325 326 325 328 327 327 327 327 327 328 327 327 327 327 326 325 325 322 321 321 322
331 332 331 330 330 330 328 329 329 329 329 329 326 326 326 324 324 326 327 327 326 326 326 327 326 326 325 325 325 321 323 322 320